Date String (YYYY-MM-DD hh:mm:ss) UTC,Instrument flags,Ambient pressure (hPa),Sample flow (lpm),Bypass flow (lpm),Sample temperature (°C),Ambient temperature (°C),ASC tube jacket temperature (°C),LED temperature (°C),Box temperature (°C),Sample RH (%),Span deviation,Mass concentration (μg/m³),Mass concentration (μg/m³),Mass concentration (μg/m³)
DateTimeUTC,F1_M11,P_M11,Q1_M11,Q2_M11,T1_M11,T2_M11,T3_M11,T4_M11,T5_M11,U1_M11,ZSPAN_M11,X0_M11,X2_M11,X1_M11
2022-10-02 21:00:00,,0828.3,5.00,0.00,29.9,28.5,00.0,38.6,31.7,26.0,0000.0,0007.63,0004.13,0003.77
2022-10-02 21:01:00,,0828.3,4.99,0.00,29.9,28.6,00.0,38.6,31.8,25.7,0000.0,0007.34,0004.12,0003.76
2022-10-02 21:02:00,,0828.3,5.01,0.00,29.9,28.7,00.0,38.6,31.8,25.3,0000.0,0007.21,0004.07,0003.74
2022-10-02 21:03:00,,0828.3,4.99,0.00,29.9,28.8,00.0,38.6,31.8,25.5,0000.0,0007.38,0004.08,0003.72
2022-10-02 21:04:00,,0828.3,5.01,0.00,29.9,28.9,00.0,38.6,31.9,25.3,0000.0,0007.38,0004.07,0003.71
2022-10-02 21:05:00,,0828.5,5.00,0.00,30.0,29.0,00.0,38.6,31.9,25.1,0000.0,0007.36,0004.05,0003.69
2022-10-02 21:06:00,,0828.3,4.99,0.00,30.0,29.1,00.0,38.6,32.0,24.5,0000.0,0007.24,0004.02,0003.67
2022-10-02 21:07:00,,0828.3,5.01,0.00,30.0,28.9,00.0,38.7,32.0,24.4,0000.0,0007.29,0004.03,0003.66
2022-10-02 21:08:00,,0828.3,5.00,0.00,30.0,27.7,00.0,38.7,31.8,24.8,0000.0,0007.33,0004.02,0003.63
2022-10-02 21:09:00,,0828.3,5.00,0.00,30.0,26.5,00.0,38.6,31.7,24.3,0000.0,0007.22,0004.00,0003.62
2022-10-02 21:10:00,,0828.3,4.99,0.00,29.9,26.4,00.0,38.6,31.6,24.3,0000.0,0007.08,0004.00,0003.61
2022-10-02 21:11:00,,0828.2,5.00,0.00,29.8,26.6,00.0,38.5,31.5,24.5,0000.0,0006.62,0003.99,0003.61
2022-10-02 21:12:00,,0828.2,5.00,0.00,29.7,26.9,00.0,38.5,31.4,24.8,0000.0,0006.74,0004.01,0003.62
2022-10-02 21:13:00,,0828.3,5.00,0.00,29.7,27.3,00.0,38.5,31.4,25.3,0000.0,0006.73,0004.02,0003.61
2022-10-02 21:14:00,,0828.2,5.01,0.00,29.7,27.6,00.0,38.4,31.5,25.3,0000.0,0006.65,0004.01,0003.60
2022-10-02 21:15:00,,0828.2,5.00,0.00,29.7,27.9,00.0,38.4,31.5,25.1,0000.0,0006.64,0004.01,0003.59
2022-10-02 21:16:00,,0828.3,5.01,0.00,29.7,28.1,00.0,38.4,31.5,25.8,0000.0,0006.59,0003.99,0003.57
2022-10-02 21:17:00,,0828.3,5.00,0.00,29.7,28.3,00.0,38.4,31.6,25.1,0000.0,0006.70,0004.00,0003.56
2022-10-02 21:18:00,,0828.2,5.01,0.00,29.7,28.4,00.0,38.4,31.6,24.8,0000.0,0006.68,0003.99,0003.55
2022-10-02 21:19:00,,0828.3,4.99,0.00,29.8,28.5,00.0,38.4,31.7,24.6,0000.0,0006.55,0003.96,0003.54
2022-10-02 21:20:00,,0828.2,5.00,0.00,29.8,28.7,00.0,38.4,31.7,24.7,0000.0,0006.59,0003.95,0003.54
2022-10-02 21:21:00,,0828.3,5.01,0.00,29.8,28.8,00.0,38.5,31.8,24.7,0000.0,0006.63,0003.94,0003.54
2022-10-02 21:22:00,,0828.3,5.01,0.00,29.9,28.9,00.0,38.5,31.8,24.9,0000.0,0006.71,0003.94,0003.53
2022-10-02 21:23:00,,0828.3,4.99,0.00,29.9,28.9,00.0,38.5,31.9,24.9,0000.0,0006.58,0003.90,0003.51
2022-10-02 21:24:00,,0828.2,5.01,0.00,29.9,29.0,00.0,38.5,31.9,24.7,0000.0,0006.59,0003.88,0003.49
2022-10-02 21:25:00,,0828.3,4.99,0.00,30.0,28.5,00.0,38.5,31.9,24.7,0000.0,0007.45,0003.87,0003.48
2022-10-02 21:26:00,,0828.2,5.00,0.00,29.9,27.2,00.0,38.5,31.8,24.6,0000.0,0007.35,0003.84,0003.48
2022-10-02 21:27:00,,0828.2,5.00,0.00,29.9,27.0,00.0,38.5,31.7,24.5,0000.0,0007.37,0003.82,0003.47
2022-10-02 21:28:00,,0828.2,4.99,0.00,29.8,27.2,00.0,38.5,31.6,24.4,0000.0,0007.33,0003.79,0003.46
2022-10-02 21:29:00,,0828.2,5.00,0.00,29.8,27.4,00.0,38.5,31.6,24.2,0000.0,0007.23,0003.75,0003.45
2022-10-02 21:30:00,,0828.2,5.00,0.00,29.8,27.7,00.0,38.4,31.6,23.9,0000.0,0007.17,0003.73,0003.42
2022-10-02 21:31:00,,0828.2,5.00,0.00,29.8,28.0,00.0,38.4,31.6,23.8,0000.0,0007.18,0003.71,0003.40
2022-10-02 21:32:00,,0828.2,5.00,0.00,29.8,28.2,00.0,38.5,31.6,24.0,0000.0,0007.08,0003.68,0003.37
2022-10-02 21:33:00,,0828.4,4.99,0.00,29.8,28.4,00.0,38.5,31.7,23.3,0000.0,0006.88,0003.64,0003.34
2022-10-02 21:34:00,,0828.3,5.01,0.00,29.8,28.6,00.0,38.5,31.7,23.1,0000.0,0007.14,0003.59,0003.31
2022-10-02 21:35:00,,0828.2,5.01,0.00,29.8,28.7,00.0,38.5,31.8,23.4,0000.0,0007.61,0003.57,0003.29
2022-10-02 21:36:00,,0828.2,5.00,0.00,29.9,28.8,00.0,38.5,31.8,23.5,0000.0,0006.85,0003.52,0003.27
2022-10-02 21:37:00,,0828.2,5.00,0.00,29.9,28.9,00.0,38.5,31.9,23.2,0000.0,0006.57,0003.49,0003.24
2022-10-02 21:38:00,,0828.2,5.01,0.00,29.9,29.0,00.0,38.5,31.9,23.2,0000.0,0006.94,0003.46,0003.21
2022-10-02 21:39:00,,0828.2,4.98,0.00,30.0,28.9,00.0,38.5,31.9,23.3,0000.0,0007.46,0003.43,0003.19
2022-10-02 21:40:00,,0828.2,5.00,0.00,30.0,27.6,00.0,38.5,31.8,23.2,0000.0,0007.49,0003.43,0003.18
2022-10-02 21:41:00,,0828.3,5.01,0.00,29.9,26.4,00.0,38.5,31.6,22.9,0000.0,0007.55,0003.43,0003.17
2022-10-02 21:42:00,,0828.3,5.00,0.00,29.8,26.3,00.0,38.5,31.5,23.0,0000.0,0007.56,0003.42,0003.16
2022-10-02 21:43:00,,0828.2,5.00,0.00,29.7,26.6,00.0,38.4,31.4,23.8,0000.0,0007.49,0003.39,0003.14
2022-10-02 21:44:00,,0828.2,5.00,0.00,29.7,26.9,00.0,38.4,31.4,24.5,0000.0,0007.50,0003.39,0003.13
2022-10-02 21:45:00,,0828.4,4.99,0.00,29.6,27.2,00.0,38.4,31.4,23.9,0000.0,0007.49,0003.41,0003.13
2022-10-02 21:46:00,,0828.4,5.00,0.00,29.6,27.6,00.0,38.3,31.4,23.7,0000.0,0006.99,0003.41,0003.13
2022-10-02 21:47:00,,0828.2,5.01,0.00,29.6,27.9,00.0,38.3,31.5,23.7,0000.0,0006.97,0003.39,0003.12
2022-10-02 21:48:00,,0828.3,5.00,0.00,29.6,28.1,00.0,38.3,31.5,23.4,0000.0,0006.97,0003.39,0003.11
2022-10-02 21:49:00,,0828.2,4.99,0.00,29.7,28.3,00.0,38.3,31.5,23.1,0000.0,0006.55,0003.40,0003.06
2022-10-02 21:50:00,,0828.3,5.01,0.00,29.7,28.4,00.0,38.3,31.6,23.6,0000.0,0005.80,0003.39,0003.02
2022-10-02 21:51:00,,0828.2,4.99,0.00,29.7,28.5,00.0,38.4,31.6,23.9,0000.0,0006.49,0003.38,0003.00
2022-10-02 21:52:00,,0828.2,5.01,0.00,29.7,28.7,00.0,38.4,31.7,23.7,0000.0,0006.73,0003.37,0002.99
2022-10-02 21:53:00,,0828.3,5.00,0.00,29.8,28.8,00.0,38.4,31.7,23.0,0000.0,0006.68,0003.37,0003.00
2022-10-02 21:54:00,,0828.2,5.00,0.00,29.8,28.9,00.0,38.4,31.7,22.6,0000.0,0006.65,0003.36,0003.00
2022-10-02 21:55:00,,0828.2,5.00,0.00,29.8,28.9,00.0,38.4,31.8,22.2,0000.0,0006.74,0003.34,0002.97
2022-10-02 21:56:00,,0828.3,4.99,0.00,29.9,29.0,00.0,38.5,31.9,22.7,0000.0,0007.55,0003.34,0002.95
2022-10-02 21:57:00,,0828.2,5.02,0.00,29.9,29.0,00.0,38.5,31.9,22.5,0000.0,0007.93,0003.32,0002.92
2022-10-02 21:58:00,,0828.2,4.99,0.00,29.9,27.8,00.0,38.5,31.8,22.8,0000.0,0007.89,0003.31,0002.91
2022-10-02 21:59:00,,0828.2,5.00,0.00,29.9,27.0,00.0,38.5,31.7,23.2,0000.0,0007.88,0003.31,0002.93
